Starlink 31463

operational
NORAD ID: 59296 Int'l Des: 2024-056 Owner: SPXS Country: US Constellation: starlink
LEOCIRCULAR

关于 Starlink 31463

正在加载描述...

实时位置

正在加载3D地球...

即将过境

高度历史

Altitude vs Time

uPlot chart will show altitude changes over time

两行轨道根数

1 59296U 24056A 25351.65330924 -.00000732 00000-0 -17106-4 0 9999
2 59296 43.0032 330.0585 0000601 273.7281 86.3502 15.27576403 98658
Epoch: Dec 17, 2025 • Age: 15 hours

当前状态

高度 484.2 km
速度 7.63 km/s
星下点 31.14°N, 76.23°W
发射日期 Mar 24, 2024
运行时间 1.7 years
类型 internet

技术详情

分类 Payload
质量 730.00 kg
干质量 700.00 kg
总质量 730.00 kg
长度 0.30 m
直径 4.10 m
跨度 29.00 m
形状 Box + pan
制造商 SPXS
平台类型 Starlink V2M
阶段状态 In Orbit
所有者/国家 SPXS/US

大型星座

Loading constellations...